Location: Newark
(51.7378°N, 19.8125°E)
Time: 20:47:56
(UTC+00:00)

Envisat - Pass Details

Date: 09 December 2019
Orbit: 764 x 766 km, 98.1° (Epoch: 28 January)

Event Time Altitude Azimuth Distance (km) Brightness Sun altitude
Rises 16:34:12 0° 169° (S) 3,222 6.3 -17.9°
Reaches altitude 10° 16:36:30 10° 171° (S) 2,300 5.5 -18.3°
Maximum altitude 16:41:34 74° 257° (WSW) 803 3.2 -19.0°
Drops below altitude 10° 16:46:41 10° 342° (NNW) 2,318 5.5 -19.8°
Sets 16:49:01 0° 345° (NNW) 3,249 6.3 -20.1°
